Location: Dunedin
(45.8670°S, 170.5000°E)
Time: 13:59:15
(UTC+12:00)

ISS - Visible Passes

Search period start: 01 July 2022 00:00
Search period end: 11 July 2022 00:00
Orbit: 414 x 420 km, 51.6° (Epoch: 30 June)

Date Brightness Start Highest point End Pass type
(mag) Time Alt. Az. Time Alt. Az. Time Alt. Az.
01 Jul -2.9 18:55:48 10° SW 18:58:46 37° S 18:58:46 37° S visible
02 Jul -2.8 18:07:35 10° WSW 18:10:44 33° S 18:12:40 18° ESE visible
02 Jul -1.3 19:44:22 10° WSW 19:45:36 21° WSW 19:45:36 21° WSW visible
03 Jul -3.8 18:56:10 10° WSW 18:59:34 64° SSE 18:59:35 64° SSE visible
04 Jul -3.4 18:07:57 10° WSW 18:11:17 47° SSE 18:13:41 17° E visible
04 Jul -1.4 19:44:50 10° WSW 19:46:37 25° W 19:46:37 25° W visible
05 Jul -3.3 18:56:29 10° WSW 18:59:52 60° NNW 19:00:53 39° NNE visible
06 Jul -3.8 18:08:12 10° WSW 18:11:38 89° SSE 18:15:02 10° ENE visible
06 Jul -1.0 19:45:50 10° W 19:47:59 16° NW 19:48:20 16° NW visible
07 Jul -1.5 18:57:02 10° W 18:59:54 25° NW 19:02:44 10° NNE visible
08 Jul -2.3 18:08:31 10° WSW 18:11:45 39° NW 18:14:57 10° NNE visible
09 Jul -0.1 18:59:19 10° NW 18:59:41 10° NW 19:00:02 10° NW visible
10 Jul -0.6 18:09:21 10° W 18:11:36 17° NW 18:13:51 10° N visible
